Regional Weather Roundup
Issued by NWS

Home | Current Version | Previous Version | Text Only | Print | Product List | Glossary On
Versions: 1 2 3 4 5 6 7 8 9 10 11 12 13 14 15 16 17 18 19 20 21 22 23 24 25 26 27 28 29 30 31 32 33 34 35 36 37 38 39 40 41 42 43 44 45 46 47 48 49 50
000
ASUS43 KOAX 191310
RWRNE

WEATHER ROUNDUP FOR NEBRASKA
NATIONAL WEATHER SERVICE OMAHA NE
700 AM CST FRI DEC 19 2014

NOTES: SATELLITE DATA IS BEING USED TO AUGMENT CLOUD COVER ABOVE
       12000 FEET.
       "FAIR" INDICATES FEW OR NO CLOUDS BELOW 12,000 FEET WITH NO
       SIGNIFICANT WEATHER AND/OR OBSTRUCTIONS TO VISIBILITY.

  * THESE STATIONS DO NOT REPORT WEATHER SUCH AS RAIN...SNOW OR FOG.

NEZ001>004-019>022-054>056-191400-
NEBRASKA PANHANDLE

CITY           SKY/WX    TMP DP  RH WIND       PRES   REMARKS
SCOTTSBLUFF    PTCLDY     4   3  96 NW6       30.06S WCI  -7
ALLIANCE       PTCLDY     2  -1  88 W9        30.04S WCI -13
CHADRON        CLEAR     11   7  84 SW8       30.04R WCI  -1
KIMBALL        PTCLDY    19  13  76 W8        30.04S WCI   9
SIDNEY         CLEAR     15  10  80 W7        30.07R WCI   5
$$

NEZ057>060-069>072-079>082-191400-
SOUTHWEST NEBRASKA

CITY           SKY/WX    TMP DP  RH WIND       PRES   REMARKS
NORTH PLATTE   PTCLDY    13   7  77 CALM      30.09R
IMPERIAL       CLEAR     18  13  80 W5        30.09R WCI  11
LEXINGTON      FOG       26  25  96 W6        30.11S VSB 3/4 WCI  19
MCCOOK         CLEAR     14  12  92 SW6       30.12S WCI   5
OGALLALA       PTCLDY    12  10  91 W5        30.08S WCI   4
$$

NEZ005>010-023>029-035>040-094-191400-
NORTH CENTRAL NEBRASKA

CITY           SKY/WX    TMP DP  RH WIND       PRES   REMARKS
VALENTINE      PTCLDY    13   9  84 SW7       30.04R WCI   3
AINSWORTH      PTCLDY    15  13  92 SW5       30.04S WCI   7
BROKEN BOW     CLOUDY    24  23  96 SW7       30.09R FOG     WCI  16
O`NEILL        FOG       26  26 100 S8        30.09S VSB 1/2 WCI  18
THEDFORD       PTCLDY    14  12  91 W3        30.05S
$$

NEZ041-046>049-061>064-073>077-083>087-191400-
SOUTH CENTRAL NEBRASKA

CITY           SKY/WX    TMP DP  RH WIND       PRES   REMARKS
GRAND ISLAND   CLOUDY    31  27  85 SW7       30.14F WCI  24
AURORA         CLOUDY    31  29  91 SW7       30.15S WCI  25
HASTINGS       CLOUDY    31  27  85 SW5       30.13S WCI  26
HEBRON         CLOUDY    30  27  90 CALM      30.18S FOG
HOLDREGE       FOG       26  25  96 W3        30.12S VSB 1/2
KEARNEY *      CLOUDY    28  25  86 SW9       30.13S WCI  20
YORK           CLOUDY    30  28  93 S6        30.16S WCI  24
$$

NEZ011>018-030>034-042>045-191400-
NORTHEAST NEBRASKA

CITY           SKY/WX    TMP DP  RH WIND       PRES   REMARKS
NORFOLK        CLOUDY    30  26  85 SW9       30.15S WCI  22
ALBION         CLOUDY    29  26  89 SW7       30.13S WCI  22
BLAIR          CLOUDY    31  29  92 S5        30.20R FOG     WCI  27
COLUMBUS *     CLOUDY    30  25  80 SW5       30.18S WCI  25
FREMONT        CLOUDY    32  30  94 SE3       30.20S FOG
TEKAMAH        CLOUDY    31  29  92 SE5       30.21S FOG     WCI  26
WAYNE          CLOUDY    31  27  86 SW9       30.17S WCI  22
$$

NEZ050>053-065>068-078-088>093-191400-
SOUTHEAST NEBRASKA

CITY           SKY/WX    TMP DP  RH WIND       PRES   REMARKS
LINCOLN        CLOUDY    31  28  89 SE6       30.21S FOG     WCI  25
OMAHA EPPLEY   CLOUDY    31  28  89 S6        30.23S FOG     WCI  25
BEATRICE       CLOUDY    30  28  93 S3        30.20S FOG
FALLS CITY     CLOUDY    29  26  89 SW6       30.24S WCI  23
NEBRASKA CITY  CLOUDY    30  30 100 S3        30.21F FOG
PLATTSMOUTH    CLOUDY    30  28  92 SE5       30.21S FOG     WCI  25
$$

NEZ044-045-051>053-067-191400-
OMAHA AREA

CITY           SKY/WX    TMP DP  RH WIND       PRES   REMARKS
OMAHA EPPLEY   CLOUDY    31  28  89 S6        30.23S FOG     WCI  25
BLAIR          CLOUDY    31  29  92 S5        30.20R FOG     WCI  27
FREMONT        CLOUDY    32  30  94 SE3       30.20S FOG
MILLARD        CLOUDY    32  29  90 SE5       30.22R FOG     WCI  27
OFFUTT AFB     CLOUDY    30  28  93 SE3       30.22S
PLATTSMOUTH    CLOUDY    30  28  92 SE5       30.21S FOG     WCI  25
WAHOO          CLOUDY    31  29  90 S3        30.20S FOG
$$


USA.gov is the U.S. government's official web portal to all federal, state and local government web resources and services.